TimeCST,TemperatureF,Dew PointF,Humidity,Sea Level PressureIn,VisibilityMPH,Wind Direction,Wind SpeedMPH,Gust SpeedMPH,PrecipitationIn,Events,Conditions,WindDirDegrees,DateUTC
12:56 AM,37.9,28.0,68,29.84,10.0,West,13.8,-,N/A,,Clear,280,2013-02-14 06:56:00
1:56 AM,37.9,28.9,70,29.86,10.0,WNW,12.7,-,N/A,,Clear,300,2013-02-14 07:56:00
2:56 AM,36.0,28.0,73,29.87,10.0,WNW,12.7,-,N/A,,Clear,290,2013-02-14 08:56:00
3:56 AM,34.0,28.0,79,29.88,10.0,WNW,9.2,-,N/A,,Clear,300,2013-02-14 09:56:00
4:38 AM,33.8,28.4,81,29.88,10.0,WNW,11.5,-,N/A,,Mostly Cloudy,290,2013-02-14 10:38:00
4:56 AM,34.0,28.0,79,29.90,10.0,NW,10.4,-,N/A,,Mostly Cloudy,310,2013-02-14 10:56:00
5:04 AM,33.8,28.4,81,29.87,10.0,WNW,9.2,-,N/A,,Scattered Clouds,300,2013-02-14 11:04:00
6:56 AM,30.9,26.1,82,29.94,10.0,WNW,10.4,-,N/A,,Clear,290,2013-02-14 12:56:00
7:56 AM,34.0,27.0,75,29.96,10.0,WNW,12.7,-,N/A,,Clear,300,2013-02-14 13:56:00
8:56 AM,35.1,26.1,70,29.99,10.0,WNW,12.7,-,N/A,,Clear,300,2013-02-14 14:56:00
9:56 AM,37.9,23.0,55,29.99,10.0,NW,23.0,29.9,N/A,,Clear,310,2013-02-14 15:56:00
10:56 AM,39.0,19.9,46,30.01,10.0,NW,25.3,35.7,N/A,,Partly Cloudy,320,2013-02-14 16:56:00
11:56 AM,39.9,19.0,43,30.02,10.0,NW,23.0,28.8,N/A,,Mostly Cloudy,310,2013-02-14 17:56:00
12:56 PM,39.0,21.0,49,30.04,10.0,NW,18.4,27.6,N/A,,Overcast,310,2013-02-14 18:56:00
1:56 PM,39.9,21.0,47,30.03,10.0,WNW,23.0,32.2,N/A,,Overcast,290,2013-02-14 19:56:00
2:56 PM,39.9,19.9,45,30.04,10.0,NW,23.0,32.2,N/A,,Overcast,310,2013-02-14 20:56:00
3:56 PM,37.9,23.0,55,30.07,10.0,NW,18.4,27.6,N/A,,Overcast,310,2013-02-14 21:56:00
4:45 PM,33.8,28.4,81,30.06,1.5,NW,20.7,31.1,0.00,Snow,Light Snow,310,2013-02-14 22:45:00
4:53 PM,33.8,28.4,81,30.06,0.8,WNW,12.7,-,0.00,Snow,Light Snow,300,2013-02-14 22:53:00
4:56 PM,33.1,28.9,85,30.11,1.2,WNW,12.7,-,0.00,Snow,Light Snow,300,2013-02-14 22:56:00
4:58 PM,33.8,28.4,81,30.06,5.0,WNW,12.7,-,0.00,Snow,Light Snow,290,2013-02-14 22:58:00
5:06 PM,33.8,28.4,81,30.06,9.0,NW,13.8,-,0.00,Snow,Light Snow,310,2013-02-14 23:06:00
5:30 PM,33.8,28.4,81,30.07,0.8,NW,15.0,28.8,0.00,Snow,Light Snow,310,2013-02-14 23:30:00
5:34 PM,33.8,28.4,81,30.07,1.0,NW,13.8,-,0.00,Snow,Light Snow,310,2013-02-14 23:34:00
5:52 PM,32.0,28.4,87,30.08,1.0,NW,17.3,25.3,0.00,Snow,Light Snow,310,2013-02-14 23:52:00
5:56 PM,32.0,28.9,88,30.14,0.8,NW,19.6,25.3,0.00,Snow,Light Snow,310,2013-02-14 23:56:00
6:04 PM,30.2,26.6,86,30.10,0.5,North,24.2,33.4,0.02,Fog-Snow,Snow,350,2013-02-15 00:04:00
6:12 PM,30.2,26.6,86,30.12,1.0,North,28.8,35.7,0.03,Snow,Light Snow,350,2013-02-15 00:12:00
6:20 PM,28.4,24.8,86,30.12,1.8,North,26.5,36.8,0.03,Snow,Light Snow,360,2013-02-15 00:20:00
6:42 PM,26.6,21.2,80,30.16,2.0,North,21.9,40.3,0.03,Snow,Light Snow,350,2013-02-15 00:42:00
6:56 PM,25.0,19.9,81,30.25,5.0,North,24.2,34.5,0.03,Snow,Light Snow,350,2013-02-15 00:56:00
7:36 PM,24.8,19.4,80,30.22,7.0,NNW,20.7,26.5,0.00,,Overcast,330,2013-02-15 01:36:00
7:52 PM,21.2,17.6,86,30.22,9.0,NNW,19.6,-,0.00,,Overcast,340,2013-02-15 01:52:00
7:56 PM,21.9,17.1,82,30.29,10.0,NNW,19.6,-,0.00,,Mostly Cloudy,330,2013-02-15 01:56:00
8:56 PM,19.9,14.0,78,30.32,10.0,NNW,17.3,-,N/A,,Clear,330,2013-02-15 02:56:00
9:56 PM,19.0,12.9,77,30.34,10.0,NNW,15.0,-,N/A,,Mostly Cloudy,330,2013-02-15 03:56:00
10:56 PM,18.0,12.9,81,30.35,10.0,NW,9.2,-,N/A,,Clear,310,2013-02-15 04:56:00
11:56 PM,17.1,12.0,81,30.35,10.0,NW,10.4,-,N/A,,Clear,320,2013-02-15 05:56:00